| time (UTC) | temp F | wind direction | speed MPH | gust MPH | rain 1hr in | rain 24hr in | rain mn in | humidity % | barometer mb |
| 20260510174834 | 55 | 34 | 2.0 | 4.0 | 0.00 | 0.00 | 0.00 | 81 | 1025.9 |
| 20260510174333 | 55 | 350 | 2.0 | 5.0 | 0.00 | 0.00 | 0.00 | 81 | 1025.8 |
| 20260510173332 | 55 | 46 | 2.0 | 5.0 | 0.00 | 0.00 | 0.00 | 81 | 1025.5 |
| 20260510172837 | 55 | 69 | 2.0 | 6.0 | 0.00 | 0.00 | 0.00 | 81 | 1025.3 |
| 20260510172832 | 55 | 91 | 2.0 | 6.0 | 0.00 | 0.00 | 0.00 | 81 | 1025.4 |
| 20260510171830 | 55 | 26 | 2.0 | 5.0 | 0.00 | 0.00 | 0.00 | 81 | 1025.2 |
| 20260510171330 | 55 | 50 | 2.0 | 5.0 | 0.00 | 0.00 | 0.00 | 81 | 1024.9 |
| 20260510170828 | 55 | 36 | 2.0 | 9.0 | 0.00 | 0.00 | 0.00 | 81 | 1024.7 |
| 20260510170328 | 55 | 37 | 3.0 | 10.0 | 0.00 | 0.00 | 0.00 | 81 | 1024.6 |
| 20260510165828 | 55 | 38 | 2.0 | 10.0 | 0.00 | 0.00 | 0.00 | 81 | 1024.4 |
| 20260510165329 | 55 | 25 | 2.0 | 6.0 | 0.00 | 0.00 | 0.00 | 81 | 1024.3 |
| 20260510164829 | 54 | 49 | 3.0 | 6.0 | 0.00 | 0.00 | 0.00 | 81 | 1024.1 |
| 20260510164327 | 54 | 17 | 3.0 | 7.0 | 0.00 | 0.00 | 0.00 | 81 | 1024.0 |
| 20260510163826 | 54 | 39 | 3.0 | 7.0 | 0.00 | 0.00 | 0.00 | 81 | 1023.9 |
| 20260510163326 | 54 | 344 | 3.0 | 8.0 | 0.00 | 0.00 | 0.00 | 81 | 1024.1 |
| 20260510162826 | 54 | 109 | 3.0 | 8.0 | 0.00 | 0.00 | 0.00 | 81 | 1024.1 |
| 20260510162326 | 54 | 24 | 3.0 | 7.0 | 0.00 | 0.00 | 0.00 | 81 | 1024.1 |
| 20260510161827 | 54 | 348 | 4.0 | 10.0 | 0.00 | 0.00 | 0.00 | 81 | 1023.9 |
| 20260510161326 | 54 | 40 | 4.0 | 10.0 | 0.00 | 0.00 | 0.00 | 81 | 1024.0 |
| 20260510160826 | 54 | 25 | 4.0 | 9.0 | 0.00 | 0.00 | 0.00 | 81 | 1023.8 |
| 20260510160327 | 54 | 5 | 4.0 | 8.0 | 0.00 | 0.00 | 0.00 | 80 | 1023.8 |
| 20260510155826 | 54 | 0 | 3.0 | 8.0 | 0.00 | 0.00 | 0.00 | 80 | 1023.9 |
| 20260510155325 | 55 | 44 | 3.0 | 8.0 | 0.00 | 0.00 | 0.00 | 79 | 1023.8 |
| 20260510154825 | 55 | 24 | 3.0 | 8.0 | 0.00 | 0.00 | 0.00 | 80 | 1023.8 |
| 20260510154330 | 56 | 32 | 3.0 | 10.0 | 0.00 | 0.00 | 0.00 | 80 | 1023.6 |
| 20260510154324 | 55 | 331 | 3.0 | 8.0 | 0.00 | 0.00 | 0.00 | 80 | 1023.7 |
| 20260510153824 | 56 | 0 | 3.0 | 10.0 | 0.00 | 0.00 | 0.00 | 80 | 1023.7 |
| 20260510152824 | 56 | 77 | 3.0 | 8.0 | 0.00 | 0.00 | 0.00 | 80 | 1023.5 |
| 20260510152324 | 56 | 32 | 3.0 | 8.0 | 0.00 | 0.00 | 0.00 | 80 | 1023.4 |
| 20260510151824 | 56 | 48 | 3.0 | 8.0 | 0.00 | 0.00 | 0.00 | 80 | 1023.3 |
| 20260510151329 | 57 | 42 | 3.0 | 9.0 | 0.00 | 0.00 | 0.00 | 81 | 1023.1 |
| 20260510151324 | 57 | 351 | 3.0 | 9.0 | 0.00 | 0.00 | 0.00 | 81 | 1023.3 |
| 20260510150327 | 57 | 16 | 2.0 | 7.0 | 0.00 | 0.00 | 0.00 | 82 | 1022.8 |
| 20260510150323 | 57 | 355 | 2.0 | 7.0 | 0.00 | 0.00 | 0.00 | 82 | 1022.9 |
| 20260510145324 | 58 | 348 | 2.0 | 7.0 | 0.00 | 0.00 | 0.00 | 82 | 1022.7 |
| 20260510144829 | 58 | 0 | 3.0 | 7.0 | 0.00 | 0.00 | 0.00 | 82 | 1022.2 |
| 20260510144825 | 58 | 146 | 3.0 | 7.0 | 0.00 | 0.00 | 0.00 | 82 | 1022.5 |
| 20260510143830 | 58 | 355 | 2.0 | 7.0 | 0.00 | 0.00 | 0.00 | 81 | 1021.9 |
| 20260510143823 | 58 | 0 | 3.0 | 11.0 | 0.00 | 0.00 | 0.00 | 82 | 1021.9 |
| 20260510143324 | 58 | 15 | 3.0 | 11.0 | 0.00 | 0.00 | 0.00 | 82 | 1021.8 |
| 20260510142936 | 58 | 86 | 2.0 | 6.0 | 0.00 | 0.00 | 0.00 | 81 | 1021.9 |
| 20260510142436 | 59 | 25 | 3.0 | 7.0 | 0.00 | 0.00 | 0.00 | 80 | 1021.9 |
| 20260510141824 | 59 | 9 | 3.0 | 7.0 | 0.00 | 0.00 | 0.00 | 80 | 1022.0 |
| 20260510140824 | 59 | 42 | 3.0 | 5.0 | 0.00 | 0.00 | 0.00 | 79 | 1021.8 |
| 20260510140328 | 59 | 40 | 3.0 | 9.0 | 0.00 | 0.00 | 0.00 | 78 | 1021.5 |
| 20260510140324 | 59 | 322 | 3.0 | 9.0 | 0.00 | 0.00 | 0.00 | 79 | 1021.7 |
| 20260510135324 | 59 | 5 | 3.0 | 9.0 | 0.00 | 0.00 | 0.00 | 79 | 1021.3 |
| 20260510134826 | 59 | 50 | 3.0 | 9.0 | 0.00 | 0.00 | 0.00 | 79 | 1021.2 |
| 20260510134324 | 60 | 230 | 3.0 | 6.0 | 0.00 | 0.00 | 0.00 | 78 | 1021.1 |
| 20260510133829 | 60 | 5 | 2.0 | 4.0 | 0.00 | 0.00 | 0.00 | 78 | 1021.1 |
| 20260510133825 | 60 | 19 | 2.0 | 5.0 | 0.00 | 0.00 | 0.00 | 78 | 1021.1 |
| 20260510133437 | 61 | 42 | 2.0 | 6.0 | 0.00 | 0.00 | 0.00 | 79 | 1020.8 |
| 20260510132324 | 61 | 326 | 2.0 | 6.0 | 0.00 | 0.00 | 0.00 | 79 | 1020.6 |
| 20260510131822 | 61 | 53 | 2.0 | 6.0 | 0.00 | 0.00 | 0.00 | 79 | 1020.5 |
| 20260510131327 | 62 | 355 | 2.0 | 5.0 | 0.00 | 0.00 | 0.00 | 78 | 1020.0 |
| 20260510131322 | 61 | 19 | 2.0 | 5.0 | 0.00 | 0.00 | 0.00 | 79 | 1020.2 |
| 20260510130822 | 61 | 46 | 2.0 | 5.0 | 0.00 | 0.00 | 0.00 | 78 | 1020.1 |
| 20260510125819 | 62 | 11 | 2.0 | 4.0 | 0.00 | 0.00 | 0.00 | 78 | 1020.0 |
| 20260510125319 | 62 | 339 | 2.0 | 4.0 | 0.00 | 0.00 | 0.00 | 78 | 1019.8 |
| 20260510124823 | 62 | 35 | 2.0 | 5.0 | 0.00 | 0.00 | 0.00 | 78 | 1019.6 |
| 20260510124819 | 62 | 9 | 2.0 | 5.0 | 0.00 | 0.00 | 0.00 | 78 | 1019.7 |
| 20260510123818 | 62 | 46 | 1.0 | 4.0 | 0.00 | 0.00 | 0.00 | 79 | 1019.3 |
| 20260510123317 | 62 | 32 | 1.0 | 5.0 | 0.00 | 0.00 | 0.00 | 79 | 1019.2 |
| 20260510122817 | 62 | 18 | 2.0 | 5.0 | 0.00 | 0.00 | 0.00 | 80 | 1019.1 |
| 20260510122316 | 61 | 37 | 2.0 | 4.0 | 0.00 | 0.00 | 0.00 | 80 | 1018.8 |
| 20260510121816 | 61 | 63 | 3.0 | 5.0 | 0.00 | 0.00 | 0.00 | 80 | 1018.7 |
| 20260510121321 | 61 | 69 | 2.0 | 7.0 | 0.00 | 0.00 | 0.00 | 81 | 1018.4 |
| 20260510121317 | 61 | 43 | 3.0 | 7.0 | 0.00 | 0.00 | 0.00 | 80 | 1018.4 |
| 20260510120315 | 61 | 61 | 2.0 | 6.0 | 0.00 | 0.00 | 0.00 | 80 | 1018.4 |
| 20260510115815 | 62 | 19 | 1.0 | 5.0 | 0.00 | 0.00 | 0.00 | 81 | 1018.2 |
| 20260510115315 | 61 | 65 | 2.0 | 5.0 | 0.00 | 0.00 | 0.00 | 81 | 1018.2 |
| 20260510114816 | 61 | 30 | 2.0 | 6.0 | 0.00 | 0.00 | 0.00 | 81 | 1018.0 |
| 20260510114316 | 61 | 53 | 2.0 | 8.0 | 0.00 | 0.00 | 0.00 | 81 | 1017.9 |
| 20260510113818 | 61 | 40 | 2.0 | 4.0 | 0.00 | 0.00 | 0.00 | 80 | 1017.9 |
| 20260510113814 | 61 | 77 | 2.0 | 8.0 | 0.00 | 0.00 | 0.00 | 80 | 1017.8 |
| 20260510112818 | 62 | 82 | 2.0 | 8.0 | 0.00 | 0.00 | 0.00 | 79 | 1017.8 |
| 20260510112814 | 61 | 55 | 2.0 | 8.0 | 0.00 | 0.00 | 0.00 | 80 | 1017.7 |
| 20260510111813 | 61 | 50 | 1.0 | 4.0 | 0.00 | 0.00 | 0.00 | 80 | 1017.7 |
| 20260510111313 | 61 | 52 | 1.0 | 3.0 | 0.00 | 0.00 | 0.00 | 79 | 1017.5 |
| 20260510110813 | 61 | 12 | 1.0 | 4.0 | 0.00 | 0.00 | 0.00 | 79 | 1017.3 |
| 20260510110312 | 61 | 5 | 1.0 | 4.0 | 0.00 | 0.00 | 0.00 | 79 | 1017.4 |
| 20260510105812 | 61 | 38 | 1.0 | 4.0 | 0.00 | 0.00 | 0.00 | 79 | 1017.3 |
| 20260510105313 | 61 | 5 | 1.0 | 3.0 | 0.00 | 0.00 | 0.00 | 78 | 1017.2 |
| 20260510105308 | 61 | 32 | 1.0 | 3.0 | 0.00 | 0.00 | 0.00 | 78 | 1017.3 |
| 20260510104308 | 61 | 5 | 1.0 | 3.0 | 0.00 | 0.00 | 0.00 | 78 | 1017.4 |
| 20260510103808 | 61 | 52 | 1.0 | 3.0 | 0.00 | 0.00 | 0.00 | 77 | 1017.2 |
| 20260510103308 | 61 | 67 | 1.0 | 3.0 | 0.00 | 0.00 | 0.00 | 77 | 1016.8 |
| 20260510102808 | 62 | 90 | 1.0 | 3.0 | 0.00 | 0.00 | 0.00 | 76 | 1016.8 |
| 20260510102306 | 62 | 25 | 1.0 | 3.0 | 0.00 | 0.00 | 0.00 | 76 | 1016.9 |
| 20260510101804 | 62 | 26 | 1.0 | 4.0 | 0.00 | 0.00 | 0.00 | 76 | 1017.0 |
| 20260510101304 | 62 | 28 | 1.0 | 4.0 | 0.00 | 0.00 | 0.00 | 75 | 1016.8 |
| 20260510100803 | 62 | 49 | 1.0 | 3.0 | 0.00 | 0.00 | 0.00 | 75 | 1016.6 |
| 20260510100304 | 62 | 349 | 1.0 | 3.0 | 0.00 | 0.00 | 0.00 | 75 | 1016.4 |
| 20260510095803 | 62 | 18 | 1.0 | 2.0 | 0.00 | 0.00 | 0.00 | 75 | 1016.2 |
| 20260510095305 | 62 | 67 | 1.0 | 3.0 | 0.00 | 0.00 | 0.00 | 75 | 1016.0 |
| 20260510094805 | 63 | 37 | 1.0 | 4.0 | 0.00 | 0.00 | 0.00 | 75 | 1016.0 |
| 20260510094304 | 63 | 47 | 1.0 | 4.0 | 0.00 | 0.00 | 0.00 | 75 | 1015.8 |
| 20260510093804 | 63 | 55 | 0.0 | 2.0 | 0.00 | 0.00 | 0.00 | 75 | 1015.5 |
| 20260510093312 | 64 | 40 | 0.0 | 2.0 | 0.00 | 0.00 | 0.00 | 74 | 1015.2 |
| 20260510093304 | 63 | 27 | 0.0 | 2.0 | 0.00 | 0.00 | 0.00 | 75 | 1015.4 |
| 20260510092804 | 64 | 344 | 0.0 | 3.0 | 0.00 | 0.00 | 0.00 | 75 | 1015.2 |
| 20260510092307 | 64 | 342 | 0.0 | 3.0 | 0.00 | 0.00 | 0.00 | 75 | 1015.3 |
| 20260510091308 | 64 | 76 | 1.0 | 2.0 | 0.00 | 0.00 | 0.00 | 74 | 1015.1 |
| 20260510091304 | 64 | 76 | 1.0 | 2.0 | 0.00 | 0.00 | 0.00 | 74 | 1015.1 |
| 20260510090304 | 65 | 76 | 0.0 | 2.0 | 0.00 | 0.00 | 0.00 | 74 | 1015.1 |
| 20260510085804 | 65 | 76 | 1.0 | 3.0 | 0.00 | 0.00 | 0.00 | 73 | 1014.9 |
| 20260510085306 | 65 | 76 | 1.0 | 3.0 | 0.00 | 0.00 | 0.00 | 73 | 1014.9 |
| 20260510084808 | 66 | 66 | 0.0 | 2.0 | 0.00 | 0.00 | 0.00 | 72 | 1014.9 |
| 20260510084803 | 65 | 76 | 0.0 | 3.0 | 0.00 | 0.00 | 0.00 | 72 | 1014.9 |
| 20260510083803 | 66 | 66 | 0.0 | 3.0 | 0.00 | 0.00 | 0.00 | 71 | 1014.9 |
| 20260510083304 | 66 | 66 | 1.0 | 3.0 | 0.00 | 0.00 | 0.00 | 71 | 1015.0 |
| 20260510082803 | 66 | 48 | 1.0 | 3.0 | 0.00 | 0.00 | 0.00 | 72 | 1015.1 |
| 20260510082306 | 67 | 20 | 1.0 | 3.0 | 0.00 | 0.00 | 0.00 | 71 | 1014.9 |
| 20260510081803 | 67 | 20 | 1.0 | 3.0 | 0.00 | 0.00 | 0.00 | 71 | 1015.1 |
| 20260510081304 | 67 | 65 | 1.0 | 3.0 | 0.00 | 0.00 | 0.00 | 70 | 1015.1 |
| 20260510080802 | 67 | 55 | 1.0 | 3.0 | 0.00 | 0.00 | 0.00 | 70 | 1015.2 |
| 20260510080259 | 67 | 63 | 2.0 | 6.0 | 0.00 | 0.00 | 0.00 | 70 | 1015.1 |
| 20260510075759 | 67 | 94 | 2.0 | 6.0 | 0.00 | 0.00 | 0.00 | 69 | 1015.2 |
| 20260510075300 | 68 | 68 | 2.0 | 5.0 | 0.00 | 0.00 | 0.00 | 68 | 1015.0 |
| 20260510074755 | 68 | 71 | 2.0 | 8.0 | 0.00 | 0.00 | 0.00 | 68 | 1014.9 |
| 20260510074255 | 68 | 66 | 2.0 | 8.0 | 0.00 | 0.00 | 0.00 | 67 | 1014.7 |
| 20260510073754 | 68 | 65 | 2.0 | 4.0 | 0.00 | 0.00 | 0.00 | 66 | 1014.7 |
| 20260510073252 | 69 | 72 | 1.0 | 4.0 | 0.00 | 0.00 | 0.00 | 65 | 1014.6 |
| 20260510072756 | 69 | 74 | 2.0 | 4.0 | 0.00 | 0.00 | 0.00 | 64 | 1014.6 |
| 20260510072752 | 69 | 42 | 1.0 | 3.0 | 0.00 | 0.00 | 0.00 | 64 | 1014.5 |
| 20260510071756 | 69 | 81 | 2.0 | 7.0 | 0.00 | 0.00 | 0.00 | 63 | 1014.3 |
| 20260510071751 | 69 | 74 | 2.0 | 7.0 | 0.00 | 0.00 | 0.00 | 64 | 1014.2 |
| 20260510070749 | 70 | 67 | 2.0 | 5.0 | 0.00 | 0.00 | 0.00 | 62 | 1014.4 |
| 20260510070249 | 70 | 53 | 2.0 | 5.0 | 0.00 | 0.00 | 0.00 | 60 | 1014.3 |
| 20260510065746 | 71 | 59 | 2.0 | 4.0 | 0.00 | 0.00 | 0.00 | 59 | 1014.3 |
| 20260510065245 | 71 | 63 | 2.0 | 4.0 | 0.00 | 0.00 | 0.00 | 58 | 1014.4 |
| 20260510064745 | 72 | 56 | 2.0 | 4.0 | 0.00 | 0.00 | 0.00 | 56 | 1014.4 |
| 20260510064247 | 73 | 47 | 2.0 | 4.0 | 0.00 | 0.00 | 0.00 | 51 | 1014.4 |
| 20260510064243 | 72 | 71 | 2.0 | 4.0 | 0.00 | 0.00 | 0.00 | 53 | 1014.4 |
| 20260510063856 | 75 | 61 | 2.0 | 5.0 | 0.00 | 0.00 | 0.00 | 38 | 1014.3 |
| 20260510063243 | 74 | 59 | 1.0 | 4.0 | 0.00 | 0.00 | 0.00 | 47 | 1014.4 |
| 20260510062743 | 74 | 42 | 1.0 | 5.0 | 0.00 | 0.00 | 0.00 | 40 | 1014.5 |
| 20260510061743 | 75 | 346 | 2.0 | 3.0 | 0.00 | 0.00 | 0.00 | 38 | 1014.2 |
| 20260510061242 | 76 | 54 | 1.0 | 4.0 | 0.00 | 0.00 | 0.00 | 29 | 1014.0 |
| 20260510060741 | 76 | 5 | 1.0 | 4.0 | 0.00 | 0.00 | 0.00 | 23 | 1014.0 |
| 20260510060245 | 76 | 355 | 1.0 | 3.0 | 0.00 | 0.00 | 0.00 | 22 | 1013.4 |
| 20260510060241 | 76 | 14 | 1.0 | 3.0 | 0.00 | 0.00 | 0.00 | 23 | 1013.8 |
| 20260510055737 | 76 | 34 | 0.0 | 2.0 | 0.00 | 0.00 | 0.00 | 23 | 1013.2 |
| 20260510054737 | 76 | 34 | 0.0 | 3.0 | 0.00 | 0.00 | 0.00 | 22 | 1013.2 |
| 20260510054237 | 76 | 34 | 0.0 | 3.0 | 0.00 | 0.00 | 0.00 | 22 | 1013.1 |
| 20260510053736 | 76 | 311 | 0.0 | 1.0 | 0.00 | 0.00 | 0.00 | 22 | 1013.0 |
| 20260510053237 | 77 | 311 | 0.0 | 2.0 | 0.00 | 0.00 | 0.00 | 22 | 1012.8 |
| 20260510052737 | 77 | 311 | 0.0 | 2.0 | 0.00 | 0.00 | 0.00 | 22 | 1012.8 |
| 20260510052237 | 77 | 311 | 0.0 | 1.0 | 0.00 | 0.00 | 0.00 | 22 | 1012.8 |
| 20260510051733 | 77 | 311 | 0.0 | 1.0 | 0.00 | 0.00 | 0.00 | 22 | 1013.0 |
| 20260510051232 | 77 | 311 | 0.0 | 1.0 | 0.00 | 0.00 | 0.00 | 22 | 1013.1 |
| 20260510050729 | 77 | 311 | 0.0 | 1.0 | 0.00 | 0.00 | 0.00 | 22 | 1013.1 |
| 20260510050229 | 78 | 311 | 0.0 | 1.0 | 0.00 | 0.00 | 0.00 | 22 | 1013.2 |
| 20260510045727 | 78 | 307 | 0.0 | 1.0 | 0.00 | 0.00 | 0.00 | 22 | 1013.3 |
| 20260510045231 | 79 | 307 | 0.0 | 1.0 | 0.00 | 0.00 | 0.00 | 21 | 1013.3 |
| 20260510045227 | 78 | 307 | 0.0 | 1.0 | 0.00 | 0.00 | 0.00 | 21 | 1013.3 |
| 20260510044225 | 79 | 307 | 0.0 | 2.0 | 0.00 | 0.00 | 0.00 | 21 | 1013.3 |
| 20260510043725 | 80 | 307 | 0.0 | 2.0 | 0.00 | 0.00 | 0.00 | 21 | 1013.2 |
| 20260510043224 | 80 | 329 | 1.0 | 2.0 | 0.00 | 0.00 | 0.00 | 20 | 1013.2 |
| 20260510042724 | 80 | 329 | 1.0 | 3.0 | 0.00 | 0.00 | 0.00 | 20 | 1013.2 |
| 20260510042223 | 80 | 336 | 0.0 | 3.0 | 0.00 | 0.00 | 0.00 | 19 | 1013.2 |
| 20260510041725 | 81 | 319 | 0.0 | 1.0 | 0.00 | 0.00 | 0.00 | 20 | 1013.1 |
| 20260510041224 | 81 | 319 | 0.0 | 2.0 | 0.00 | 0.00 | 0.00 | 19 | 1013.1 |
| 20260510040724 | 81 | 319 | 1.0 | 3.0 | 0.00 | 0.00 | 0.00 | 19 | 1013.2 |
| 20260510040225 | 82 | 319 | 2.0 | 7.0 | 0.00 | 0.00 | 0.00 | 19 | 1013.3 |
| 20260510035724 | 82 | 321 | 2.0 | 7.0 | 0.00 | 0.00 | 0.00 | 19 | 1013.2 |
| 20260510035220 | 81 | 322 | 2.0 | 4.0 | 0.00 | 0.00 | 0.00 | 19 | 1013.1 |
| 20260510034719 | 81 | 323 | 2.0 | 5.0 | 0.00 | 0.00 | 0.00 | 19 | 1013.0 |
| 20260510034225 | 78 | 311 | 1.0 | 4.0 | 0.00 | 0.00 | 0.00 | 21 | 1013.1 |
| 20260510034220 | 80 | 346 | 2.0 | 6.0 | 0.00 | 0.00 | 0.00 | 20 | 1012.8 |
| 20260510033717 | 79 | 328 | 2.0 | 6.0 | 0.00 | 0.00 | 0.00 | 21 | 1013.1 |
| 20260510032717 | 78 | 309 | 0.0 | 3.0 | 0.00 | 0.00 | 0.00 | 21 | 1013.0 |
| 20260510032329 | 78 | 333 | 0.0 | 0.0 | 0.00 | 0.00 | 0.00 | 19 | 1012.3 |
| 20260510032220 | 78 | 333 | 0.0 | 1.0 | 0.00 | 0.00 | 0.00 | 20 | 1012.3 |
| 20260510032215 | 78 | 333 | 0.0 | 1.0 | 0.00 | 0.00 | 0.00 | 21 | 1012.6 |
| 20260510031327 | 78 | 335 | 1.0 | 2.0 | 0.00 | 0.00 | 0.00 | 20 | 1012.2 |
| 20260510030717 | 78 | 333 | 0.0 | 3.0 | 0.00 | 0.00 | 0.00 | 19 | 1012.1 |
| 20260510030215 | 78 | 333 | 1.0 | 3.0 | 0.00 | 0.00 | 0.00 | 19 | 1012.1 |
| 20260510025214 | 78 | 325 | 0.0 | 2.0 | 0.00 | 0.00 | 0.00 | 20 | 1012.3 |
| 20260510024714 | 78 | 142 | 0.0 | 0.0 | 0.00 | 0.00 | 0.00 | 19 | 1011.9 |
| 20260510024214 | 78 | 142 | 0.0 | 0.0 | 0.00 | 0.00 | 0.00 | 19 | 1011.6 |
| 20260510023713 | 78 | 142 | 0.0 | 0.0 | 0.00 | 0.00 | 0.00 | 19 | 1011.5 |
| 20260510023213 | 79 | 142 | 0.0 | 0.0 | 0.00 | 0.00 | 0.00 | 18 | 1011.4 |
| 20260510022713 | 79 | 142 | 0.0 | 1.0 | 0.00 | 0.00 | 0.00 | 17 | 1011.2 |
| 20260510022213 | 79 | 142 | 0.0 | 2.0 | 0.00 | 0.00 | 0.00 | 17 | 1011.0 |
| 20260510021712 | 79 | 142 | 0.0 | 2.0 | 0.00 | 0.00 | 0.00 | 17 | 1011.0 |
| 20260510021213 | 80 | 142 | 0.0 | 1.0 | 0.00 | 0.00 | 0.00 | 18 | 1011.3 |
| 20260510020712 | 80 | 142 | 0.0 | 1.0 | 0.00 | 0.00 | 0.00 | 17 | 1011.0 |
| 20260510020211 | 80 | 142 | 0.0 | 1.0 | 0.00 | 0.00 | 0.00 | 16 | 1010.9 |
| 20260510015711 | 80 | 142 | 0.0 | 4.0 | 0.00 | 0.00 | 0.00 | 16 | 1010.9 |
| 20260510015211 | 81 | 142 | 0.0 | 4.0 | 0.00 | 0.00 | 0.00 | 16 | 1010.9 |
| 20260510014711 | 81 | 309 | 0.0 | 1.0 | 0.00 | 0.00 | 0.00 | 16 | 1010.8 |
| 20260510014211 | 81 | 309 | 0.0 | 0.0 | 0.00 | 0.00 | 0.00 | 17 | 1010.7 |
| 20260510013716 | 83 | 309 | 0.0 | 0.0 | 0.00 | 0.00 | 0.00 | 17 | 1010.6 |
| 20260510013712 | 82 | 309 | 0.0 | 0.0 | 0.00 | 0.00 | 0.00 | 17 | 1010.6 |
| 20260510012711 | 83 | 309 | 0.0 | 0.0 | 0.00 | 0.00 | 0.00 | 16 | 1010.6 |
| 20260510012211 | 84 | 309 | 0.0 | 0.0 | 0.00 | 0.00 | 0.00 | 15 | 1010.5 |
| 20260510011710 | 84 | 309 | 0.0 | 0.0 | 0.00 | 0.00 | 0.00 | 14 | 1010.4 |
| 20260510011208 | 85 | 309 | 0.0 | 0.0 | 0.00 | 0.00 | 0.00 | 14 | 1010.4 |
| 20260510010709 | 85 | 309 | 0.0 | 0.0 | 0.00 | 0.00 | 0.00 | 14 | 1010.3 |
| 20260510010209 | 86 | 309 | 0.0 | 0.0 | 0.00 | 0.00 | 0.00 | 14 | 1010.3 |
| 20260510005710 | 87 | 309 | 0.0 | 1.0 | 0.00 | 0.00 | 0.00 | 13 | 1010.3 |
| 20260510005209 | 87 | 309 | 0.0 | 1.0 | 0.00 | 0.00 | 0.00 | 13 | 1010.2 |
| 20260510004709 | 87 | 309 | 0.0 | 2.0 | 0.00 | 0.00 | 0.00 | 13 | 1010.2 |
| 20260510004210 | 88 | 309 | 1.0 | 3.0 | 0.00 | 0.00 | 0.00 | 12 | 1010.2 |
| 20260510003714 | 89 | 309 | 1.0 | 3.0 | 0.00 | 0.00 | 0.00 | 12 | 1010.2 |
| 20260510003709 | 88 | 309 | 1.0 | 3.0 | 0.00 | 0.00 | 0.00 | 12 | 1010.2 |
| 20260510002715 | 90 | 281 | 2.0 | 5.0 | 0.00 | 0.00 | 0.00 | 12 | 1010.2 |
| 20260510002708 | 89 | 309 | 1.0 | 4.0 | 0.00 | 0.00 | 0.00 | 12 | 1010.2 |
| 20260510002208 | 89 | 307 | 1.0 | 4.0 | 0.00 | 0.00 | 0.00 | 11 | 1010.2 |
| 20260510001707 | 89 | 310 | 2.0 | 5.0 | 0.00 | 0.00 | 0.00 | 11 | 1010.0 |
| 20260510001207 | 89 | 292 | 2.0 | 5.0 | 0.00 | 0.00 | 0.00 | 11 | 1010.2 |
| 20260510000207 | 90 | 297 | 2.0 | 4.0 | 0.00 | 0.00 | 0.00 | 11 | 1010.3 |
| 20260509235708 | 90 | 282 | 2.0 | 5.0 | 0.00 | 0.00 | 0.00 | 11 | 1010.2 |
| 20260509235212 | 91 | 326 | 2.0 | 4.0 | 0.00 | 0.00 | 0.00 | 11 | 1010.2 |
| 20260509235208 | 91 | 333 | 2.0 | 5.0 | 0.00 | 0.00 | 0.00 | 11 | 1010.2 |
| 20260509234819 | 91 | 32 | 2.0 | 4.0 | 0.00 | 0.00 | 0.00 | 10 | 1010.3 |
| 20260509233707 | 91 | 289 | 2.0 | 4.0 | 0.00 | 0.00 | 0.00 | 11 | 1010.3 |
| 20260509233205 | 91 | 259 | 2.0 | 5.0 | 0.00 | 0.00 | 0.00 | 11 | 1010.4 |
| 20260509232703 | 92 | 323 | 2.0 | 5.0 | 0.00 | 0.00 | 0.00 | 10 | 1010.4 |
| 20260509232203 | 92 | 336 | 1.0 | 4.0 | 0.00 | 0.00 | 0.00 | 10 | 1010.4 |
| 20260509231702 | 92 | 259 | 1.0 | 6.0 | 0.00 | 0.00 | 0.00 | 10 | 1010.4 |
| 20260509231200 | 91 | 234 | 2.0 | 7.0 | 0.00 | 0.00 | 0.00 | 10 | 1010.5 |
| 20260509230701 | 91 | 78 | 3.0 | 7.0 | 0.00 | 0.00 | 0.00 | 9 | 1010.5 |
| 20260509230200 | 91 | 297 | 4.0 | 9.0 | 0.00 | 0.00 | 0.00 | 9 | 1010.6 |
| 20260509225701 | 91 | 185 | 4.0 | 9.0 | 0.00 | 0.00 | 0.00 | 9 | 1010.5 |
| 20260509225202 | 91 | 287 | 3.0 | 8.0 | 0.00 | 0.00 | 0.00 | 10 | 1010.5 |
| 20260509224702 | 92 | 260 | 4.0 | 9.0 | 0.00 | 0.00 | 0.00 | 10 | 1010.6 |
| 20260509224201 | 91 | 326 | 4.0 | 9.0 | 0.00 | 0.00 | 0.00 | 10 | 1010.7 |
| 20260509223659 | 91 | 287 | 3.0 | 9.0 | 0.00 | 0.00 | 0.00 | 10 | 1010.9 |
| 20260509223200 | 92 | 300 | 3.0 | 8.0 | 0.00 | 0.00 | 0.00 | 10 | 1010.8 |
| 20260509222657 | 92 | 300 | 3.0 | 8.0 | 0.00 | 0.00 | 0.00 | 10 | 1010.9 |
| 20260509222157 | 92 | 279 | 3.0 | 6.0 | 0.00 | 0.00 | 0.00 | 11 | 1010.9 |
| 20260509221658 | 92 | 318 | 3.0 | 7.0 | 0.00 | 0.00 | 0.00 | 11 | 1010.8 |
| 20260509221156 | 92 | 271 | 3.0 | 7.0 | 0.00 | 0.00 | 0.00 | 10 | 1010.8 |
| 20260509220655 | 92 | 289 | 3.0 | 6.0 | 0.00 | 0.00 | 0.00 | 11 | 1011.2 |
| 20260509220153 | 92 | 336 | 3.0 | 10.0 | 0.00 | 0.00 | 0.00 | 11 | 1011.0 |
| 20260509215652 | 91 | 317 | 4.0 | 10.0 | 0.00 | 0.00 | 0.00 | 11 | 1011.3 |
| 20260509215152 | 91 | 234 | 4.0 | 9.0 | 0.00 | 0.00 | 0.00 | 10 | 1011.2 |
| 20260509214652 | 91 | 287 | 4.0 | 10.0 | 0.00 | 0.00 | 0.00 | 11 | 1011.3 |
| 20260509214153 | 91 | 278 | 4.0 | 10.0 | 0.00 | 0.00 | 0.00 | 11 | 1011.4 |
| 20260509213654 | 91 | 280 | 5.0 | 10.0 | 0.00 | 0.00 | 0.00 | 10 | 1011.5 |
| 20260509213157 | 92 | 275 | 4.0 | 10.0 | 0.00 | 0.00 | 0.00 | 9 | 1011.6 |
| 20260509213153 | 91 | 259 | 4.0 | 10.0 | 0.00 | 0.00 | 0.00 | 10 | 1011.5 |
| 20260509212153 | 92 | 333 | 4.0 | 10.0 | 0.00 | 0.00 | 0.00 | 10 | 1011.7 |
| 20260509211652 | 92 | 327 | 4.0 | 10.0 | 0.00 | 0.00 | 0.00 | 12 | 1011.6 |
| 20260509211154 | 91 | 98 | 4.0 | 10.0 | 0.00 | 0.00 | 0.00 | 10 | 1011.6 |
| 20260509210658 | 91 | 268 | 4.0 | 11.0 | 0.00 | 0.00 | 0.00 | 10 | 1011.9 |
| 20260509210653 | 91 | 315 | 5.0 | 11.0 | 0.00 | 0.00 | 0.00 | 9 | 1011.7 |
| 20260509205652 | 90 | 327 | 4.0 | 11.0 | 0.00 | 0.00 | 0.00 | 10 | 1011.9 |
| 20260509205150 | 90 | 288 | 4.0 | 11.0 | 0.00 | 0.00 | 0.00 | 11 | 1011.9 |
| 20260509204650 | 90 | 244 | 4.0 | 10.0 | 0.00 | 0.00 | 0.00 | 13 | 1011.9 |
| 20260509204152 | 91 | 287 | 4.0 | 12.0 | 0.00 | 0.00 | 0.00 | 12 | 1012.1 |
| 20260509204148 | 90 | 285 | 5.0 | 12.0 | 0.00 | 0.00 | 0.00 | 12 | 1012.1 |
| 20260509203154 | 91 | 280 | 4.0 | 15.0 | 0.00 | 0.00 | 0.00 | 12 | 1012.2 |
| 20260509203148 | 91 | 298 | 4.0 | 15.0 | 0.00 | 0.00 | 0.00 | 13 | 1012.1 |
| 20260509202149 | 91 | 21 | 4.0 | 8.0 | 0.00 | 0.00 | 0.00 | 12 | 1012.2 |
| 20260509201646 | 91 | 325 | 4.0 | 12.0 | 0.00 | 0.00 | 0.00 | 13 | 1012.2 |
| 20260509201146 | 91 | 252 | 4.0 | 12.0 | 0.00 | 0.00 | 0.00 | 12 | 1012.3 |
| 20260509200648 | 91 | 335 | 4.0 | 13.0 | 0.00 | 0.00 | 0.00 | 14 | 1012.3 |
| 20260509200146 | 90 | 287 | 5.0 | 13.0 | 0.00 | 0.00 | 0.00 | 11 | 1012.3 |
| 20260509195646 | 90 | 269 | 4.0 | 9.0 | 0.00 | 0.00 | 0.00 | 15 | 1012.3 |
| 20260509195147 | 90 | 300 | 4.0 | 9.0 | 0.00 | 0.00 | 0.00 | 15 | 1012.3 |
| 20260509194647 | 89 | 268 | 5.0 | 9.0 | 0.00 | 0.00 | 0.00 | 14 | 1012.3 |
| 20260509194147 | 90 | 247 | 5.0 | 11.0 | 0.00 | 0.00 | 0.00 | 15 | 1012.4 |
| 20260509193647 | 89 | 268 | 5.0 | 11.0 | 0.00 | 0.00 | 0.00 | 15 | 1012.4 |
| 20260509193151 | 89 | 271 | 3.0 | 11.0 | 0.00 | 0.00 | 0.00 | 16 | 1012.5 |
| 20260509193146 | 89 | 248 | 4.0 | 11.0 | 0.00 | 0.00 | 0.00 | 15 | 1012.4 |
| 20260509192800 | 89 | 288 | 2.0 | 7.0 | 0.00 | 0.00 | 0.00 | 17 | 1012.6 |
| 20260509191646 | 89 | 239 | 3.0 | 8.0 | 0.00 | 0.00 | 0.00 | 17 | 1012.6 |
| 20260509191147 | 88 | 229 | 4.0 | 11.0 | 0.00 | 0.00 | 0.00 | 17 | 1012.8 |
| 20260509190646 | 88 | 282 | 4.0 | 11.0 | 0.00 | 0.00 | 0.00 | 18 | 1012.8 |
| 20260509190149 | 87 | 263 | 4.0 | 9.0 | 0.00 | 0.00 | 0.00 | 18 | 1013.0 |
| 20260509190145 | 87 | 270 | 4.0 | 9.0 | 0.00 | 0.00 | 0.00 | 18 | 1013.1 |
| 20260509185144 | 87 | 227 | 5.0 | 10.0 | 0.00 | 0.00 | 0.00 | 19 | 1013.1 |
| 20260509184644 | 87 | 246 | 4.0 | 12.0 | 0.00 | 0.00 | 0.00 | 18 | 1013.2 |
| 20260509184144 | 87 | 270 | 4.0 | 12.0 | 0.00 | 0.00 | 0.00 | 18 | 1013.3 |
| 20260509183644 | 87 | 250 | 4.0 | 11.0 | 0.00 | 0.00 | 0.00 | 18 | 1013.4 |
| 20260509183145 | 87 | 248 | 4.0 | 11.0 | 0.00 | 0.00 | 0.00 | 19 | 1013.3 |
| 20260509182645 | 87 | 278 | 4.0 | 10.0 | 0.00 | 0.00 | 0.00 | 18 | 1013.5 |
| 20260509182143 | 87 | 298 | 3.0 | 9.0 | 0.00 | 0.00 | 0.00 | 19 | 1013.5 |
| 20260509181643 | 87 | 167 | 3.0 | 9.0 | 0.00 | 0.00 | 0.00 | 19 | 1013.6 |
| 20260509181140 | 87 | 277 | 2.0 | 6.0 | 0.00 | 0.00 | 0.00 | 19 | 1013.7 |
| 20260509180642 | 86 | 214 | 2.0 | 7.0 | 0.00 | 0.00 | 0.00 | 20 | 1014.0 |
| 20260509180139 | 86 | 330 | 3.0 | 7.0 | 0.00 | 0.00 | 0.00 | 21 | 1014.2 |
| 20260509175637 | 85 | 290 | 3.0 | 7.0 | 0.00 | 0.00 | 0.00 | 22 | 1014.3 |
| 20260509175137 | 85 | 142 | 3.0 | 9.0 | 0.00 | 0.00 | 0.00 | 22 | 1014.4 |